Location: *
(24.1434°N, 56.8729°E)
Time: 07:35:12
(UTC+00:00)

GPS 2-18 Rocket1 - Pass Details

Date: 09 April 2020
Orbit: 459 x 516 km, 20.9° (Epoch: 25 May)

Event Time Altitude Azimuth Distance (km) Brightness Sun altitude
Rises 15:18:17 0° 238° (WSW) 2,469 7.4 -11.2°
Reaches altitude 10° 15:20:40 10° 225° (SW) 1,604 6.1 -11.7°
Maximum altitude 15:23:49 26° 166° (SSE) 938 4.2 -12.4°
Enters shadow 15:25:28 19° 126° (SE) 1,162 4.4 -12.8°
